Terminal Aerodrome Forecast
Issued by NWS Sterling, VA

Current Version | Previous Version | Text Only | Print | Product List | Glossary On
Versions: 1 2 3 4 5 6 7 8 9 10 11 12 13 14 15 16 17 18 19 20 21 22 23 24 25 26 27
000
FTUS41 KLWX 302059 AAB
TAFIAD
TAF AMD
KIAD 302059Z 3021/0124 33010KT P6SM VCSH SCT050
     FM010000 03004KT P6SM -SHRA OVC050
     FM010300 07007KT 5SM -SHRA OVC025
     FM010800 04013G18KT P6SM OVC008
     FM011700 03008KT P6SM BKN015
     FM012000 13006KT P6SM BKN050
     FM012100 19006KT P6SM BKN050=

USA.gov is the U.S. government's official web portal to all federal, state and local government web resources and services.